Location: Lane
(33.5226°N, 79.8788°W)
Time: 04:50:42
(UTC+00:00)

Vanguard 2 - Pass Details

Date: 04 October 2022
Orbit: 553 x 2933 km, 32.9° (Epoch: 26 November)

Event Time Altitude Azimuth Distance (km) Brightness Sun altitude
Rises 17:06:55 0° 236° (SW) 4,127 11.5 51.9°
Reaches altitude 10° 17:09:18 10° 233° (SW) 3,414 11.3 51.9°
Maximum altitude 17:18:18 63° 154° (SSE) 2,101 11.5 51.9°
Drops below altitude 10° 17:33:01 10° 79° (E) 5,371 11.8 51.5°
Sets 17:37:49 0° 77° (ENE) 6,596 12.1 51.3°
